Regional Weather Roundup
Issued by NWS

Home | Current Version | Previous Version | Text Only | Print | Product List | Glossary Off
Versions: 1 2 3 4 5 6 7 8 9 10 11 12 13 14 15 16 17 18 19 20 21 22 23 24 25 26 27 28 29 30 31 32 33 34 35 36 37 38 39 40 41 42 43 44 45 46 47 48 49 50

786
ASUS43 KIND 190009
RWRIN

WEATHER ROUNDUP FOR INDIANA
NATIONAL WEATHER SERVICE INDIANAPOLIS IN
700 PM EST THU JAN 18 2018

NOTE: "FAIR" INDICATES FEW OR NO CLOUDS BELOW 12,000 FEET WITH NO
SIGNIFICANT WEATHER AND/OR OBSTRUCTIONS TO VISIBILITY.

* - STATION DOES NOT REPORT WEATHER SUCH AS PRECIPITATION OR FOG.

+ - STATION NOT QUALITY CONTROLLED BY THE NATIONAL WEATHER SERVICE.
    USE DATA WITH CAUTION...ESPECIALLY DEWPOINT AND RELATIVE
    HUMIDITY OBSERVATIONS.

INZ001>003-010>013-019-020-190100-
NORTHWEST INDIANA

CITY           SKY/WX    TMP DP  RH WIND       PRES   REMARKS
GARY /AIRPORT/ CLEAR     32  19  59 SW17      30.04R WCI  21
KNOX *+        FAIR      27  19  74 SW12      30.07R WCI  16
LA PORTE +     FAIR      26  19  75 SW14G21   30.05R WCI  14
6HR MIN TEMP:  23; 6HR MAX TEMP:  28;

MICHIGAN CITY+ FAIR      28  19  69 SW17      30.04R WCI  16
MONTICELLO +   FAIR      26  14  60 SW13      30.10S WCI  15
6HR MIN TEMP:  25; 6HR MAX TEMP:  29;

RENSSELAER +   FAIR      28  18  64 S14G20    30.09R WCI  17
VALPARAISO     FAIR      27  19  72 SW10      30.06R WCI  17
6HR MIN TEMP:  25; 6HR MAX TEMP:  31;


$$

LMZ046-743>745-190100-
SOUTHERN LAKE MICHIGAN

STATION/POSITION TIME  TEMP    WIND        PRES    WAVE
                       AIR SEA DIR/SP/G            HT
                 (UTC) (F)     (DEG/KT/KT) (MB)    (FT)
BURNS HARBOR     2345   29     210/ 14/ 25 1017.6R
MICHIGAN CITY    2340   30     190/ 18/ 23   N/A

$$

INZ004-005-014>016-021>024-190100-
NORTH CENTRAL INDIANA

CITY           SKY/WX    TMP DP  RH WIND       PRES   REMARKS
ELKHART        FAIR      27  16  63 SW9       30.04R WCI  17
GOSHEN         FAIR      24  15  68 SW18G24   30.04S WCI  10
6HR MIN TEMP:  23; 6HR MAX TEMP:  26;

LOGANSPORT +   FAIR      25  16  68 SW13      30.11S WCI  13
PERU/GRISSOM   CLEAR     23  15  71 SW12      30.10R WCI  12
6HR MIN TEMP:  23; 6HR MAX TEMP:  27;

ROCHESTER +    FAIR      28  18  64 SW8       30.09R WCI  20
SOUTH BEND     FAIR      26  17  68 SW17G26   30.04R WCI  13
6HR MIN TEMP:  23; 6HR MAX TEMP:  27;

WARSAW +       FAIR      27  16  63 SW5       30.07R WCI  21

$$

INZ006>009-017-018-025>027-190100-
NORTHEAST INDIANA

CITY           SKY/WX    TMP DP  RH WIND       PRES   REMARKS
AUBURN +       FAIR      27  14  59 SW10      30.06S WCI  17
FORT WAYNE     FAIR      25  15  66 SW14      30.09F WCI  13
6HR MIN TEMP:  24; 6HR MAX TEMP:  27;

HUNTINGTON +   FAIR      26  12  56 SW9       30.09S WCI  16
6HR MIN TEMP:  24; 6HR MAX TEMP:  28;

KENDALLVILLE + FAIR      25  15  66 SW15G21   30.04S WCI  12

$$

INZ028-029-035-036-043>045-051>053-190100-
WEST CENTRAL INDIANA

CITY           SKY/WX    TMP DP  RH WIND       PRES   REMARKS
CRAWFORDSVL +  FAIR      23  15  70 MISG        N/A
6HR MIN TEMP:  22; 6HR MAX TEMP:  26;

GREENCASTLE +  FAIR      27  12  54 SW8       30.19R WCI  18
LAFAYETTE      FAIR      27  15  61 SW7       30.13R WCI  19
6HR MIN TEMP:  25; 6HR MAX TEMP:  29;

TERRE HAUTE    FAIR      24  13  62 S12       30.21R WCI  13
6HR MIN TEMP:  24; 6HR MAX TEMP:  29;


$$

INZ030>032-037>040-046>048-054>057-064-065-190100-
CENTRAL INDIANA

CITY           SKY/WX    TMP DP  RH WIND       PRES   REMARKS
FRANKFORT +    FAIR      28  17  64 SW14G20   30.14R WCI  16
6HR MIN TEMP:  26; 6HR MAX TEMP:  31;

INDIANAPOLIS   FAIR      26  13  57 SW10      30.18R WCI  16
6HR MIN TEMP:  26; 6HR MAX TEMP:  31;

-EAGLE CREEK   FAIR      27  13  55 SW9G22    30.16R WCI  18
6HR MIN TEMP:  25; 6HR MAX TEMP:  29;

MARION +       FAIR      27  15  61 SW17      30.12R WCI  14
MT COMFORT *+  FAIR      27  18  69 S8        30.17R WCI  18
SHELBYVILLE    FAIR      27  13  55 S13       30.19R WCI  16
6HR MIN TEMP:  26; 6HR MAX TEMP:  32;

ZIONSVILLE +   FAIR      25  13  60 SW16      30.14S WCI  12
6HR MIN TEMP:  23; 6HR MAX TEMP:  28;


$$

INZ033-034-041-042-049-050-058-059-190100-
EAST CENTRAL INDIANA

CITY           SKY/WX    TMP DP  RH WIND       PRES   REMARKS
MUNCIE         FAIR      29  13  51 S12       30.12S WCI  19
6HR MIN TEMP:  25; 6HR MAX TEMP:  31;

RICHMOND +     FAIR      25  14  63 SW15      30.17R WCI  12

$$

INZ060-061-067>069-081>083-085>088-190100-
SOUTHWEST INDIANA

CITY           SKY/WX    TMP DP  RH WIND       PRES   REMARKS
EVANSVILLE     FAIR      28  14  55 S10       30.30  WCI  19
6HR MIN TEMP:  23; 6HR MAX TEMP:  29;

HUNTINGBURG +  FAIR      23  13  65 S7        30.29S WCI  15
6HR MIN TEMP:  23; 6HR MAX TEMP:  31;

WASHINGTON +   FAIR      26  11  54 S16       30.25S WCI  13
6HR MIN TEMP:  25; 6HR MAX TEMP:  31;


$$

INZ062-063-066-070>080-084-089>092-190100-
SOUTH CENTRAL AND SOUTHEAST INDIANA

CITY           SKY/WX    TMP DP  RH WIND       PRES   REMARKS
BATESVILLE *+    N/A    N/A N/A N/A MISG        N/A
BLOOMINGTON    FAIR      27  12  53 SW13      30.21R WCI  16
6HR MIN TEMP:  26; 6HR MAX TEMP:  32;

FRENCH LICK *+ FAIR      27   9  46 SW9       30.26F WCI  17
MADISON *+     FAIR      27  14  59 S9        30.27F WCI  17
NORTH VERNON + FAIR      27  12  54 S9        30.24R WCI  17
SEYMOUR +      FAIR      28  10  47 SW10      30.26R WCI  19

$$





USA.gov is the U.S. government's official web portal to all federal, state and local government web resources and services.